Wind_Speed
9 9 10 10 11 11 11 12 13 13 14 14 14 15 15 15 16 16 16 17 17 17 17 17 17 17 17 17 17 17 17 17 17 18 18 18 18 18 18 18 17 17 17
8 8 9 9 10 10 11 12 12 13 13 14 14 15 15 15 16 16 16 17 17 18 18 18 18 18 19 18 18 18 18 18 18 19 19 19 19 19 19 19 18 18 18
6 7 8 9 9 10 11 11 12 13 13 14 14 14 15 15 16 16 16 17 18 18 18 18 19 19 19 19 19 19 19 19 19 19 19 20 20 19 19 19 19 19 19
5 7 7 8 9 9 10 11 11 12 13 14 14 15 15 16 16 16 17 17 17 17 18 18 18 19 19 19 19 19 19 20 20 20 20 19 20 20 20 20 20 19 19
5 6 7 8 8 9 10 11 11 12 13 14 14 15 15 16 16 16 17 17 17 18 18 18 18 19 19 19 19 19 19 19 19 20 20 19 19 19 19 20 20 20 20
5 6 7 8 8 9 10 11 12 13 13 14 14 15 15 16 16 17 17 17 18 18 18 19 19 19 19 19 19 19 19 19 19 19 19 19 19 19 19 19 19 19 20
7 7 8 9 9 10 11 12 13 13 14 14 15 16 16 16 17 17 18 18 19 19 19 19 19 19 19 19 19 19 19 19 20 20 20 20 20 20 20 20 20 20 20
10 10 10 11 11 12 12 13 14 14 15 15 16 17 17 18 18 19 19 19 20 20 20 20 20 20 20 20 20 20 20 20 21 21 21 21 21 21 21 21 21 21 21
13 12 12 12 13 13 14 15 15 16 16 17 17 18 19 19 20 20 21 21 21 21 22 22 22 22 22 22 22 22 22 23 23 23 23 23 23 23 23 23 23 23 23
15 15 15 15 15 15 16 16 17 17 18 19 19 20 20 21 22 22 22 23 23 23 24 24 24 24 24 24 24 24 25 25 25 25 25 25 25 25 25 25 25 26 26
15 16 17 17 17 17 18 18 19 19 19 20 20 21 21 22 23 23 23 24 25 25 26 26 27 27 27 27 27 27 27 27 28 28 28 28 28 28 28 28 28 29 29
16 17 18 18 18 19 19 19 20 20 21 21 22 22 23 24 24 25 25 25 26 27 27 28 28 29 29 30 30 31 31 31 31 31 31 31 31 31 32 32 32 32 33
16 17 18 19 19 19 20 20 21 21 22 22 23 23 24 24 25 26 26 27 27 28 29 29 30 30 31 32 33 33 33 34 34 34 35 35 35 35 36 36 36 36 37
17 17 19 19 19 20 20 21 21 22 22 23 24 24 25 26 26 27 28 28 29 29 30 31 31 32 33 34 35 35 36 36 37 37 38 38 38 39 39 40 40 40 40
18 18 19 20 20 21 21 21 22 22 23 24 24 25 26 26 27 28 28 29 30 30 31 31 32 33 34 35 36 37 37 38 38 39 39 40 41 41 42 42 43 43 43
20 19 20 20 21 21 22 22 22 23 23 24 25 26 26 27 27 28 29 29 30 30 31 32 33 33 34 35 35 36 37 38 39 40 40 41 42 43 44 44 45 46 46
21 20 21 21 21 22 22 22 23 24 24 25 25 26 26 27 27 28 29 30 31 31 32 33 33 34 35 35 36 36 37 38 39 40 41 42 44 45 46 47 48 48 49
22 21 21 21 22 22 23 23 24 24 25 25 26 26 27 28 28 29 29 30 31 31 32 33 33 34 35 36 36 37 38 38 39 41 42 43 44 45 46 47 48 49 50
22 22 22 22 22 23 23 24 25 25 26 26 27 28 28 29 29 29 30 31 31 32 32 33 34 34 35 36 37 37 38 38 39 41 42 43 44 45 46 47 48 49 50
22 22 22 22 23 24 24 25 26 26 27 27 28 28 29 29 30 30 31 31 31 32 32 33 34 35 36 37 37 38 38 39 40 41 42 43 44 45 46 48 49 50 51
23 23 23 23 24 24 25 26 26 27 27 28 28 29 30 30 31 31 31 31 32 33 34 35 36 37 38 39 39 39 39 40 41 42 43 44 46 47 48 49 50 51 52
23 23 23 24 24 25 26 27 27 28 28 29 29 30 31 31 32 32 32 33 34 35 36 37 38 39 40 41 42 42 40 41 43 43 45 46 48 49 50 51 52 53 54
24 24 24 24 25 26 27 28 28 29 30 30 30 31 31 32 33 34 34 35 36 37 38 39 40 41 41 43 44 45 44 43 43 43 46 48 50 51 53 55 56 57 59
24 24 24 25 26 27 28 28 29 30 30 31 32 32 33 34 35 36 37 37 38 40 41 41 42 43 44 44 45 47 48 49 49 47 47 49 51 53 55 57 59 61 62
24 25 25 26 26 27 28 29 30 31 32 32 33 34 35 36 37 38 39 39 40 41 42 43 44 45 46 46 47 49 50 52 54 55 53 52 54 56 58 60 62 64 66
25 25 26 26 27 28 30 31 32 32 33 34 35 36 37 38 39 40 41 42 42 44 45 46 46 48 49 50 51 52 54 55 57 59 60 59 59 59 61 62 65 67 69
Wind_Direction
245 249 252 255 258 262 265 268 271 272 273 274 275 275 276 276 276 276 276 276 277 277 276 275 274 274 274 275 275 275 274 273 272 272 272 272 272 272 272 272 272 272 271
246 251 254 257 261 265 268 271 273 274 275 276 276 276 277 277 276 276 275 275 275 275 274 273 273 273 273 273 273 272 272 271 271 271 271 270 270 270 270 269 269 269 269
250 254 259 262 264 267 269 272 274 275 276 277 277 277 277 277 277 276 275 275 274 274 273 272 272 272 272 272 272 271 270 270 270 270 270 269 268 268 267 267 266 266 266
258 259 261 264 266 268 270 272 274 276 277 278 278 278 277 277 277 277 276 275 274 274 273 272 271 271 271 271 271 270 270 270 269 269 268 267 267 266 265 265 264 264 263
266 267 268 270 271 272 273 274 274 276 277 277 278 278 278 278 278 277 276 275 275 274 273 272 271 270 270 269 269 269 268 268 267 266 266 265 265 264 264 263 263 262 262
279 274 275 276 277 276 276 276 276 276 276 277 277 278 279 279 278 278 277 276 275 274 273 272 271 270 268 268 267 266 265 265 265 264 264 264 263 263 263 262 263 262 262
293 287 282 280 279 278 278 277 276 275 275 276 276 277 278 278 278 278 277 276 275 274 273 272 270 269 268 267 265 264 263 263 263 264 264 263 262 262 262 261 261 261 261
292 292 287 283 280 279 279 279 278 276 276 276 276 276 277 277 277 277 277 276 275 274 273 271 269 268 267 265 264 263 262 263 263 263 263 262 262 261 261 260 260 260 260
290 290 288 286 283 281 280 279 278 277 277 276 276 276 276 276 276 276 276 275 275 274 273 270 269 267 266 265 264 263 263 263 262 262 261 261 261 261 261 260 260 260 261
287 287 287 285 284 282 281 280 279 278 278 278 277 276 276 276 276 275 275 275 274 273 272 270 269 268 266 265 264 263 263 262 261 261 261 261 261 261 261 261 261 261 261
283 284 284 284 283 283 283 282 280 280 279 279 278 277 276 275 275 275 275 274 273 272 271 270 269 268 267 266 265 264 263 262 261 261 261 261 262 262 261 261 261 262 262
281 281 282 282 283 283 283 283 282 281 280 279 278 277 277 276 275 275 275 274 273 272 271 271 270 269 268 267 266 265 264 263 263 262 262 262 262 262 262 262 262 263 263
280 280 282 283 284 284 283 283 282 282 281 280 279 279 278 277 276 276 276 275 274 273 272 271 270 270 269 268 267 266 265 265 264 264 264 263 263 263 263 264 264 264 265
281 280 282 284 284 284 285 284 283 283 282 282 281 280 279 278 278 278 277 277 276 275 274 273 272 271 270 269 268 267 266 265 265 265 265 264 264 264 264 264 265 266 266
280 279 281 282 283 284 285 285 284 283 282 282 282 281 281 281 280 280 279 278 278 277 276 275 274 273 272 271 270 269 268 268 267 267 267 267 267 267 267 266 267 267 267
280 280 280 281 282 284 284 284 284 284 283 283 283 283 282 282 281 281 280 279 278 278 277 276 276 275 274 273 273 273 273 272 272 271 270 270 269 269 269 269 269 268 268
278 279 279 280 282 282 283 284 284 285 285 285 285 284 283 282 281 280 280 279 279 279 278 278 278 277 276 276 275 274 274 273 273 272 271 271 270 270 270 269 269 269 269
276 278 278 279 280 281 283 284 284 285 286 286 285 285 285 284 282 281 280 280 279 279 279 279 279 278 277 276 276 275 275 274 273 273 272 272 272 272 271 271 271 271 270
275 276 277 278 279 281 283 284 285 285 286 286 286 286 285 285 284 283 282 281 281 280 280 279 279 278 278 277 277 277 277 276 276 275 274 274 274 273 273 273 273 273 272
274 275 276 277 278 280 282 284 285 286 286 286 286 286 285 285 285 285 283 282 282 281 281 281 280 280 279 279 279 278 278 277 277 276 276 276 276 275 275 275 275 274 274
272 274 276 277 279 281 283 284 285 285 285 286 286 286 285 285 285 285 284 283 283 283 282 282 282 281 281 280 279 278 278 278 277 277 277 277 277 277 276 276 276 276 276
271 273 275 278 280 282 283 285 286 286 286 286 286 285 286 286 285 284 284 284 284 284 283 283 283 283 283 282 281 280 278 278 279 279 279 279 279 278 278 278 277 277 277
270 273 275 278 280 282 284 286 287 287 286 286 286 286 286 286 286 285 284 284 284 285 285 285 285 285 284 284 283 282 280 277 275 276 278 279 279 279 279 279 279 278 277
270 273 276 279 281 283 285 286 287 287 286 286 287 287 287 287 286 286 286 286 286 286 286 286 286 286 285 285 285 285 284 283 280 277 276 277 278 279 279 279 279 278 278
271 274 277 280 282 284 285 286 287 287 287 287 288 288 288 288 287 287 287 287 287 287 287 287 287 287 287 287 287 286 286 286 286 284 281 280 279 280 280 280 280 280 279
271 275 278 281 283 285 286 287 287 287 287 288 289 289 289 288 288 288 288 288 288 288 288 288 288 288 288 288 288 288 287 287 287 286 285 284 283 282 282 282 282 282 281
Height
5879 5879 5880 5880 5880 5881 5881 5881 5881 5881 5882 5882 5882 5882 5882 5882 5882 5882 5882 5881 5881 5881 5880 5880 5880 5879 5879 5879 5879 5879 5878 5878 5878 5877 5877 5877 5877 5877 5876 5876 5876 5876 5876
5878 5878 5878 5878 5878 5879 5879 5879 5879 5879 5879 5880 5880 5880 5880 5880 5880 5879 5879 5879 5878 5878 5877 5877 5876 5876 5876 5876 5876 5875 5875 5875 5874 5874 5874 5873 5873 5873 5873 5873 5873 5872 5872
5876 5876 5876 5877 5877 5877 5877 5877 5877 5877 5877 5877 5877 5877 5877 5877 5877 5877 5876 5876 5875 5875 5874 5874 5873 5873 5873 5872 5872 5872 5871 5871 5871 5870 5870 5870 5869 5869 5869 5869 5869 5869 5869
5875 5875 5875 5875 5875 5875 5875 5875 5875 5875 5875 5875 5875 5874 5874 5874 5874 5873 5873 5873 5872 5871 5871 5870 5870 5869 5869 5869 5868 5868 5867 5867 5866 5866 5866 5866 5865 5865 5865 5865 5865 5865 5865
5874 5873 5873 5873 5873 5873 5873 5873 5873 5873 5873 5872 5872 5872 5871 5871 5871 5870 5870 5869 5869 5868 5867 5867 5866 5866 5865 5865 5864 5864 5863 5863 5862 5862 5862 5862 5861 5861 5861 5861 5861 5860 5860
5872 5872 5872 5871 5871 5871 5871 5871 5870 5870 5870 5870 5869 5869 5868 5868 5868 5867 5866 5866 5865 5865 5864 5863 5863 5862 5862 5861 5860 5860 5859 5859 5858 5858 5858 5858 5857 5857 5857 5856 5856 5856 5856
5871 5870 5870 5869 5869 5869 5869 5868 5868 5868 5867 5867 5867 5866 5865 5865 5864 5864 5863 5862 5862 5861 5860 5859 5859 5858 5858 5857 5856 5856 5855 5855 5854 5854 5854 5853 5853 5853 5852 5852 5852 5851 5851
5868 5868 5868 5867 5867 5867 5866 5866 5865 5865 5864 5864 5863 5863 5862 5861 5861 5860 5859 5858 5858 5857 5856 5855 5855 5854 5853 5853 5852 5852 5851 5851 5850 5850 5849 5849 5848 5848 5848 5847 5847 5846 5846
5866 5865 5865 5865 5864 5864 5863 5863 5862 5862 5861 5860 5860 5859 5858 5858 5857 5856 5855 5854 5853 5853 5852 5851 5850 5850 5849 5849 5848 5847 5847 5846 5846 5845 5844 5844 5843 5843 5843 5842 5842 5841 5841
5863 5862 5862 5861 5861 5860 5860 5859 5859 5858 5858 5857 5856 5855 5854 5853 5852 5852 5851 5850 5849 5848 5847 5846 5846 5845 5844 5844 5843 5843 5842 5841 5841 5840 5839 5839 5838 5838 5837 5837 5837 5836 5836
5860 5859 5858 5858 5857 5857 5856 5855 5855 5854 5853 5853 5852 5851 5850 5849 5848 5847 5846 5845 5844 5843 5842 5841 5840 5840 5839 5838 5838 5837 5836 5836 5835 5834 5834 5833 5833 5832 5832 5831 5831 5830 5830
5857 5856 5855 5854 5853 5853 5852 5851 5850 5850 5849 5848 5847 5846 5845 5844 5843 5842 5841 5840 5839 5838 5837 5836 5835 5834 5833 5833 5832 5831 5830 5830 5829 5828 5828 5827 5826 5826 5825 5825 5825 5824 5824
5854 5852 5851 5850 5849 5848 5848 5847 5846 5845 5844 5843 5842 5841 5840 5839 5838 5837 5836 5834 5833 5832 5831 5830 5829 5828 5827 5826 5825 5824 5824 5823 5822 5821 5821 5820 5820 5819 5819 5818 5818 5817 5817
5850 5849 5847 5846 5845 5844 5843 5842 5841 5840 5839 5838 5837 5836 5835 5834 5833 5831 5830 5829 5827 5826 5825 5824 5823 5821 5820 5819 5818 5817 5816 5816 5815 5814 5813 5813 5812 5811 5811 5810 5809 5809 5809
5846 5845 5843 5842 5841 5840 5839 5838 5837 5835 5834 5833 5832 5831 5830 5828 5827 5826 5824 5823 5821 5820 5819 5817 5816 5815 5813 5812 5811 5810 5809 5808 5807 5806 5805 5804 5804 5803 5802 5801 5801 5800 5800
5841 5840 5839 5838 5837 5835 5834 5833 5832 5830 5829 5828 5827 5825 5824 5823 5821 5820 5818 5816 5815 5813 5812 5811 5809 5808 5806 5805 5804 5802 5801 5800 5799 5798 5797 5796 5794 5793 5792 5792 5791 5790 5790
5836 5835 5835 5833 5832 5831 5829 5828 5827 5825 5824 5823 5821 5820 5818 5817 5815 5814 5812 5810 5808 5807 5805 5803 5802 5800 5799 5797 5796 5795 5793 5792 5790 5789 5788 5786 5784 5783 5782 5781 5780 5779 5779
5831 5830 5830 5829 5827 5826 5825 5823 5822 5820 5819 5817 5816 5814 5812 5811 5809 5807 5805 5803 5802 5800 5798 5796 5794 5793 5791 5789 5788 5786 5785 5783 5781 5780 5778 5776 5775 5773 5771 5770 5769 5768 5767
5826 5825 5824 5823 5822 5821 5820 5818 5816 5815 5813 5811 5810 5808 5806 5804 5802 5800 5798 5796 5794 5792 5790 5789 5787 5785 5783 5781 5780 5778 5776 5775 5772 5770 5768 5766 5765 5763 5761 5759 5758 5757 5755
5820 5820 5819 5818 5817 5815 5814 5812 5811 5809 5807 5805 5803 5801 5799 5797 5795 5793 5791 5789 5787 5785 5783 5781 5779 5777 5775 5773 5771 5770 5768 5766 5763 5761 5759 5757 5754 5752 5750 5749 5747 5745 5743
5815 5814 5813 5812 5811 5810 5808 5807 5805 5803 5801 5799 5797 5795 5792 5790 5788 5786 5784 5782 5779 5777 5775 5773 5771 5768 5766 5763 5762 5761 5759 5756 5753 5751 5749 5746 5744 5741 5739 5737 5735 5733 5731
5809 5808 5807 5806 5805 5804 5802 5800 5798 5796 5794 5792 5790 5788 5785 5783 5781 5778 5776 5774 5771 5769 5766 5764 5761 5759 5756 5753 5751 5750 5750 5749 5744 5741 5738 5735 5732 5730 5727 5725 5722 5720 5718
5803 5802 5801 5800 5799 5797 5795 5794 5792 5789 5787 5785 5783 5780 5778 5775 5773 5770 5768 5765 5763 5760 5757 5754 5752 5749 5747 5743 5739 5737 5736 5736 5735 5733 5729 5724 5721 5718 5715 5712 5709 5706 5704
5797 5796 5795 5794 5792 5791 5789 5787 5785 5783 5780 5778 5775 5773 5770 5767 5765 5762 5759 5756 5753 5750 5748 5745 5742 5739 5736 5733 5729 5725 5722 5720 5719 5720 5719 5715 5710 5706 5702 5698 5695 5691 5688
5791 5790 5788 5787 5785 5784 5782 5780 5778 5775 5773 5770 5767 5765 5762 5759 5756 5753 5750 5747 5744 5741 5737 5734 5731 5728 5724 5721 5718 5714 5711 5707 5703 5700 5701 5701 5697 5693 5688 5684 5679 5675 5670
5784 5783 5782 5780 5778 5777 5774 5772 5770 5767 5765 5762 5759 5756 5753 5750 5747 5743 5740 5737 5733 5730 5727 5723 5720 5716 5713 5709 5705 5701 5698 5694 5690 5685 5682 5681 5680 5677 5673 5668 5662 5657 5652